www.pogodaiklimat.ru

Погода и климат >> Архив погоды >> Россия >> Хакасия >> Первомайское


ПОГОДА в Первомайском

  • Прогноз погоды в Первомайском
  • Монитор погоды в Первомайском

АРХИВ ПОГОДЫ в Первомайском

Время (UTC), дата Ветер
(напр.,м/с)
 
Видим.   Явления Облачность Т
(С)
Тd
(С)
f
(%)
Тe
(С)
Тes
(С)
Комфортность P
(гПа)
Po
(гПа)
Тmin
(С)
Tmax
(С)
R
(мм)
R24
(мм)
S
(см)
21 16.05 З 2 н/о 1 балл -5.9 -6.8 93 -10 -10 1024.6 989.3
00 17.05 ЮЗ 4 20 км 10/3 1000 м
[Sc Cc]
+3.1 -2.7 66 -1 -1 1022.7 988.7 -6.1
03 17.05 Ю 2 20 км 9 баллов +9.1 -5.2 36 +8 +9 1022.6 989.3
06 17.05 СЗ 3 20 км 9 баллов +11.4 -6.9 27 +10 +12 1021.0 988.0
09 17.05 Ю 6 20 км осадки на расстоянии 10 баллов +9.7 -1.4 46 +7 +7 1022.6 989.3
12 17.05 ЮВ 3 20 км осадки на расстоянии {ливн. осадки} 10/8 600 м
[Cb cap Ci fib]
+8.8 -1.9 47 +7 +7 1021.9 988.7 +12.0
15 17.05 ЮЗ 1 н/о 7 баллов +1.6 -2.2 76 0 0 1025.0 990.7
18 17.05 З 4 н/о 6 баллов 0.0 -2.4 84 -5 -5 1026.6 992.0
21 17.05 ЮЗ 1 н/о 4 балла -4.4 -5.1 95 -7 -7 1027.1 992.0
00 18.05 штиль 0 20 км 10/0 2000 м
[Ac trans Cs]
-0.2 -2.1 87 -1 -0 1025.6 991.2 -6.4
03 18.05 Ю 4 20 км 10 баллов +9.9 -2.1 43 +8 +8 1024.0 990.7
06 18.05 ЮВ 7-10
{10}
20 км 10/8 600 м
[Cb cap Ac trans Ci fib]
+13.0 -1.7 36 +11 +11 1020.0 987.3
09 18.05 ЮВ 5 20 км 10 баллов +13.9 -4.3 28 +13 +13 1017.9 985.3
12 18.05 Ю 5
{11}
20 км 10/4 1000 м
[Sc Ac trans Ci sp]
+14.5 -5.2 25 +13 +14 1015.9 983.5 +15.0
15 18.05 Ю 5 20 км 10 баллов +10.9 -5.6 31 +9 +9 1017.0 984.0
18 18.05 С 1 н/о 10 баллов +7.2 -4.5 43 +7 +7 1016.0 982.7
21 18.05 СЗ 1 н/о 10 баллов -1.3 -5.2 75 -3 -3 1017.1 982.7
00 19.05 СЗ 1 20 км 10/0 2000 м
[Ac lent Cs]
+5.6 -0.9 63 +5 +6 1013.7 980.4 -1.7
03 19.05 ЮВ 6 20 км 10 баллов +16.6 -3.5 25 +16 +16 1012.2 980.0
06 19.05 ЮВ 7-11
{13}
20 км 9/0 2000 м
[Ac As Ci fib]
+21.1 -2.1 21 +20 +21 1008.9 977.3
09 19.05 Ю 9 20 км 9 баллов +24.6 -3.8 15 +23 +23 комфорт 1005.8 974.7
12 19.05 Ю 3
{15}
20 км 10/8 1000 м
[Sc Ac As Ci fib]
+22.8 -2.2 19 +22 +22 комфорт 1006.0 974.8 +25.1 0.0
15 19.05 штиль 0 20 км 6 баллов +14.0 -0.8 36 +14 +14 1008.3 976.0
18 19.05 ЮЗ 1 н/о 2 балла +5.1 -0.7 66 +4 +4 1010.7 977.3
21 19.05 З 2 н/о 7 баллов +5.5 -0.3 66 +3 +3 1009.3 976.0
00 20.05 штиль 0 20 км {ливн. осадки} 10/8 600 м
[Cb cap Ac trans Ci fib]
+12.2 +4.5 59 +12 +12 1008.6 976.2 +4.5 0.0
03 20.05 Ю 3 20 км слаб. ливневой дождь 10 баллов +15.2 +10.8 75 +15 +15 1009.4 977.3
06 20.05 З 5
{11}
20 км {ливн. осадки} 10/10 600 м
[Cb cap]
+18.6 +8.4 51 +19 +19 1007.3 975.6
09 20.05 З 8 20 км 7 баллов +21.9 +7.3 39 +23 +23 комфорт 1007.4 976.0
12 20.05 З 7
{13}
20 км 5/5 600 м
[Cu Sc]
+20.6 +3.8 33 +21 +21 комфорт 1006.8 975.4 +22.3 0.0
15 20.05 З 5 20 км 10 баллов +13.6 +7.8 68 +12 +12 1008.3 976.0
18 20.05 С 1 н/о 10 баллов +9.1 +5.8 80 +9 +9 1006.0 973.3
21 20.05 СВ 1 н/о слаб. ливневой дождь 10 баллов +10.1 +8.7 91 +10 +10 1005.9 973.3
00 21.05 ЮВ 3 20 км {ливн. осадки} 10/9 600 м
[Cb cap Ci sp]
+11.9 +9.5 85 +10 +10 1000.7 968.5 +8.0 3
03 21.05 Ю 7 20 км слаб. ливневой дождь 10 баллов +14.9 +11.1 78 +13 +13 999.8 968.0
06 21.05 З 10-13
{15}
20 км {ливн. осадки} 10/10 600 м
[Cb cap]
+18.2 +9.5 57 +17 +17 999.4 968.0
09 21.05 З 9 20 км 10 баллов +18.5 +6.3 45 +18 +18 1000.8 969.3
12 21.05 С 2
{14}
20 км 10/9 600 м
[Cb cap Ac As]
+15.0 +4.0 48 +15 +15 1002.5 970.6 +19.6 0.0
15 21.05 штиль 0 20 км 10 баллов +10.8 +4.7 66 +10 +10 1004.5 972.0
18 21.05 З 4 н/о 10 баллов +6.7 +4.2 84 +3 +3 1005.0 972.0
21 21.05 штиль 0 н/о 10 баллов +8.7 +5.6 81 +8 +8 1006.1 973.3
00 22.05 З 3 20 км 9/9 600 м
[Cb cap]
+8.8 +5.1 78 +6 +7 1006.4 973.7 +5.6 0.1
03 22.05 З 10 20 км 9 баллов +13.9 -1.3 35 +11 +11 1008.3 976.0
06 22.05 З 6-11
{17}
20 км {ливн. осадки} 8/8 600 м
[Cb cap Ci fib]
+15.9 -2.9 27 +15 +16 1006.5 974.5
09 22.05 З 6 20 км 10 баллов +15.4 -4.5 25 +14 +14 1006.8 974.7
12 22.05 З 6 20 км 10/4 600 м
[Cb cap Ac As Ci fib]
+14.4 -3.5 29 +13 +13 1004.5 972.4 +17.2 0.0
15 22.05 ЮЗ 2 20 км 10 баллов +7.5 0.0 59 +6 +6 1004.9 972.0
18 22.05 С 4 н/о 10 баллов +8.1 +2.8 69 +5 +5 1006.2 973.3
21 22.05 З 4 н/о 10 баллов +7.0 +2.7 74 +4 +4 1009.1 976.0
00 23.05 ЮЗ 4 20 км {дождь} 9/5 1000 м
[Sc Ac As Ci fib]
+7.9 +4.5 79 +5 +5 1009.9 977.0 +6.1 0.0
03 23.05 З 7 20 км 10 баллов +10.1 +2.5 59 +7 +7 1012.9 980.0
06 23.05 З 5
{15}
20 км {ливн. осадки} 10/8 600 м
[Cb cap Ac trans Ci fib]
+13.9 +2.9 47 +12 +13 1010.3 978.0
09 23.05 З 8 20 км 10 баллов +11.9 +2.6 53 +9 +9 1012.7 980.0
12 23.05 З 7-10
{13}
20 км 10/4 600 м
[Cb cap Ac trans Ci fib]
+12.3 +0.1 43 +10 +10 1012.6 980.1 +14.4 0.5
15 23.05 З 5 20 км 7 баллов +8.9 +2.7 65 +6 +6 1015.8 982.7

 

Местоположение метеостанции Первомайское (Хакасия, Россия): широта 54.58 долгота 90.87 высота над уровнем моря 275 м.

В архиве по умолчанию представлена погода в Первомайском за последнюю неделю. Архивные данные за месяц целиком и за предыдущие месяцы, начиная с января 2011 года, Вы можете получить, выбрав интересующий диапазон дат из раскрывающегося списка и нажав кнопку "Ввод!".


*Определитесь, кто Вы:
робот инопланетянин человек

Внимание! Время в таблицах - всемирное. Для получения местного времени необходимо прибавить поправку, которая равна 7 ч.

Смотрите также архив погоды в соседних городах и на ближайших метеорологических станциях:

Погода в Светлолобово (Красноярский край, Россия) (58 км)
Погода в Шире (Хакасия, Россия) (61 км)
Погода в Лебяжьем (Красноярский край, Россия) (62 км)
Погода в Копьево-2 (Хакасия, Россия) (82 км)
Погода в Идринском (Красноярский край, Россия) (85 км)
Погода в Хакасской (Хакасия, Россия) (95 км)
Погода в Уйбате (Хакасия, Россия) (101 км)
Погода в Балахте (Красноярский край, Россия) (103 км)
Погода в Ужуре (Красноярский край, Россия) (104 км)
Погода в Коммунаре (Хакасия, Россия) (107 км)

Пояснения к столбцам:

Ветер - указаны скорость ветра в м/с - средняя за 10 мин, порывы в срок и между сроками (в фигурных скобках) и направление, откуда дует ветер: С - северный, СВ - северо-восточный, В - восточный, ЮВ - юго-восточный, Ю - южный, ЮЗ - юго-западный, З - западный, СЗ - северо-западный.
Видимость - горизонтальная дальность видимости в метрах или километрах. При видимости от 1 до 10 км при отсутствии осадков обычно наблюдается дымка, при ухудшении видимости до 1 км и менее - туман. В сухую погоду видимость может ухудшаться дымом, пылью или мглою.
Явления - указаны атмосферные явления, наблюдавшиеся в срок или в последний час перед сроком; фигурными скобками обозначены явления, наблюдавшиеся между сроками (за 1-3 часа до срока); квадратными скобками обозначены град или гололедные отложения с указанием их диаметра в мм.
Облачность - указаны через наклонную черту общая и нижняя облачность в баллах и высота нижней границы облаков в метрах; квадратными скобками обозначены формы облаков: Ci - перистые, Cs - перисто-слоистые, Cc - перисто-кучевые, Ac - высококучевые, As - высокослоистые, Sc - слоисто-кучевые, Ns - слоисто-дождевые, Cu - кучевые, Cb - кучево-дождевые. Подробнее классификацию облаков см. в Атласе облаков (PDF).
T - Температура воздуха - температура, измеренная на высоте 2 м над землей.
Td - Температура точки росы - температура, при понижении до которой содержащийся в воздухе водяной пар достигнет насыщения.
f - Относительная влажность воздуха - влажноcть воздуха, измеренная на высоте 2 м над землей.
Te - Эффективная температура - температура, которую ощущает одетый по сезону человек в тени. Характеристика душности погоды. При расчете учитывается влияние влажности воздуха и скорости ветра на теплоощущения человека.
Tes - Эффективная температура на солнце - температура, которую ощущает человек, с поправкой на солнечный нагрев. Характеристика знойности погоды. Зависит от высоты солнца над горизонтом, облачности и скорости ветра. Ночью, в пасмурную погоду, а также при ветре 12 м/с и более поправка равна нулю.
P - Атмосферное давление - приведенное к уровню моря атмосферное давление.
Po - Атмосферное давление - измеренное на уровне метеостанции атмосферное давление.
Tmin - Минимальная температура - минимум температуры воздуха на высоте 2 м над землей.
Tmax - Максимальная температура - максимум температуры воздуха на высоте 2 м над землей.
R - Количество осадков - Количество выпавших осадков за период времени, мм. При наведении курсора мыши на число - период времени, за который выпало указанное количество осадков.
R24 - Количество осадков - Количество выпавших осадков за 24 часа, мм.
S - Снежный покров - Высота снежного покрова, см. При наведении курсора мыши на число - состояние снежного покрова и степень покрытия местности в баллах.